Погода в Южном

Украина / Одесская область     46°37′19″N   31°05′59″E
темп.,
°C
ветер,
м/с
пор.,
м/с
влажн.,
%
обл.,
%
осадки,
мм/ч
давл.,
гПа
погр.,
м
2 марта, вт
вт223:00+3с5779100 0.1 1032582
02:00+2с688098 0.1 1033457
05:00+3ссз457082 0.0 1032575
08:00+2сз347368 0.0 1032235
11:00+3зюз34690 0.0 1030347
14:00+5юз677317 0.0 1028165
17:00+6з686964 0.0 1025110
20:00+6з687246 0.0 102594
3 марта, ср
ср323:00+5сз7117712 0.0 1024180
02:00+4с9128245 0.0 1026669
05:00+4с81172100 0.1 1026785
08:00+4ссз7117266 0.1 1029374
11:00+5ссз57700 0.0 1029142
14:00+6ссз44630 0.0 102994
17:00+6сз23644 0.0 102851
20:00+5юз236951 0.0 102824
4 марта, чт
чт423:00+5з236911 0.0 102822
02:00+5юз45705 0.0 102637
05:00+4юз56770 0.0 102480
08:00+4юз69880 0.0 1023172
11:00+5ююз811880 0.0 1020208
14:00+5ююз1114880 0.0 1018245
17:00+5ююз11158731 0.0 1015243
20:00+5ююз10158815 0.0 1015217
5 марта, пт
пт523:00+5юз710890 0.0 1014135
02:00+5юз45880 0.0 101445
05:00+5ююз458660 0.0 101240
08:00+6ююз458580 0.0 101246
11:00+6ююз568392 0.0 101173
14:00+6ююз678178 0.0 101073
17:00+7ююз677629 0.0 101052
20:00+7с337318 0.0 101124
6 марта, сб
сб623:00+6св667816 0.0 101249
02:00+5с799151 0.0 1013153
05:00+4с81192100 0.0 1015317
08:00+2ссв101384100 0.1 1018726
11:00+3с91059100 0.0 10201018
14:00+4с81055100 0.0 10211206
17:00+3с81047100 0.0 10231371
20:00+3с7104967 0.0 10261452